Location: Catacaguana
(10.4120°N, 66.7591°W)
Time: 05:36:11
(UTC+00:00)

TSX-5 - Pass Details

Date: 27 May 2022
Orbit: 399 x 1298 km, 68.9° (Epoch: 26 June)

Event Time Altitude Azimuth Distance (km) Brightness Sun altitude
Exits shadow 08:27:46 36° 119° (ESE) 656 4.4 -22.3°
Maximum altitude 08:27:59 36° 108° (ESE) 648 4.5 -22.3°
Drops below altitude 10° 08:30:51 10° 39° (NE) 1,444 6.9 -21.7°
Sets 08:32:59 0° 30° (NNE) 2,331 8.0 -21.2°
